This demonstration page uses our WeatherBlox Daily Observations layout. Learn more.

38.89511, -77.03637

Hourly Observations for December 25, 2016

Temp ( °F °C ) Dew Point ( °F °C ) Humidity (%) Winds ( mph kmh ) Pressure ( in mb ) Visibility ( mi km ) Precip ( " mm )
12:52 am 00:52 Mostly Clear 41 5 39 3.9 93 93 NNW 6 9 30.34 1028 10 16.0934 0 0
1:52 am 01:52 Mostly Cloudy 44 6.7 39 3.9 83 83 NNW 7 11 30.36 1028 10 16.0934 0 0
2:52 am 02:52 Mostly Clear 41 5 38 3.3 89 89 NNW 6 9 30.38 1029 10 16.0934 0 0
3:52 am 03:52 Mostly Clear 39 3.9 37 2.8 93 93 Calm 30.39 1029 10 16.0934 0 0
4:52 am 04:52 Mostly Clear with Mist and Fog 35 1.7 35 1.7 100 100 Calm 30.4 1030 6 9.65604 0 0
5:52 am 05:52 Mostly Clear 37 2.8 36 2.2 96 96 NE 7 11 30.43 1031 10 16.0934 0 0
6:52 am 06:52 Mostly Clear 36 2.2 35 1.7 97 97 N 3 6 30.45 1031 10 16.0934 0 0
7:52 am 07:52 Mostly Sunny 38 3.3 35 1.7 89 89 NE 8 13 30.47 1032 10 16.0934 0 0
8:52 am 08:52 Mostly Sunny 40 4.4 37 2.8 89 89 NE 7 11 30.5 1033 10 16.0934 0 0
9:52 am 09:52 Sunny 44 6.7 37 2.8 76 76 NE 8 13 30.52 1034 10 16.0934 0 0
10:52 am 10:52 Mostly Sunny 45 7.2 38 3.3 77 77 E 5 7 30.55 1034 10 16.0934 0 0
11:52 am 11:52 Mostly Sunny 48 8.9 38 3.3 68 68 Calm 30.52 1033 10 16.0934 0 0
12:52 pm 12:52 Mostly Sunny 50 10 37 2.8 61 61 Calm 30.5 1033 10 16.0934 0 0
1:52 pm 13:52 Mostly Sunny 50 10 38 3.3 63 63 E 5 7 30.49 1032 10 16.0934 0 0
2:52 pm 14:52 Partly Cloudy 50 10 39 3.9 66 66 ENE 7 11 30.49 1032 10 16.0934 0 0
3:52 pm 15:52 Partly Cloudy 49 9.4 38 3.3 66 66 NE 5 7 30.51 1033 10 16.0934 0 0
4:52 pm 16:52 Partly Cloudy 46 7.8 37 2.8 71 71 ENE 8 13 30.53 1034 10 16.0934 0 0
5:52 pm 17:52 Mostly Cloudy 45 7.2 37 2.8 74 74 ENE 5 7 30.55 1034 10 16.0934 0 0
6:52 pm 18:52 Mostly Cloudy 42 5.6 35 1.7 76 76 ESE 3 6 30.57 1035 10 16.0934 0 0
7:52 pm 19:52 Partly Cloudy 43 6.1 35 1.7 74 74 Calm 30.59 1036 10 16.0934 0 0
8:52 pm 20:52 Mostly Clear 40 4.4 35 1.7 83 83 Calm 30.61 1037 10 16.0934 0 0
9:52 pm 21:52 Mostly Clear 39 3.9 35 1.7 86 86 ENE 3 6 30.63 1037 10 16.0934 0 0
10:52 pm 22:52 Mostly Clear 39 3.9 35 1.7 86 86 Calm 30.63 1037 10 16.0934 0 0
11:52 pm 23:52 Mostly Cloudy 37 2.8 35 1.7 93 93 Calm 30.63 1037 9 14.48406 0 0

Powered by AerisWeather